Regional Weather Roundup
Issued by NWS

Home | Current Version | Previous Version | Text Only | Print | Product List | Glossary On
Versions: 1 2 3 4 5 6 7 8 9 10 11 12 13 14 15 16 17 18 19 20 21 22 23 24 25 26 27 28 29 30 31 32 33 34 35 36 37 38 39 40 41 42 43 44 45 46 47 48 49 50
000
ASUS46 KLOX 210012
RWRCA

SOUTHERN CALIFORNIA WEATHER ROUNDUP
NATIONAL WEATHER SERVICE OXNARD CALIFORNIA
500 PM PDT WED AUG 20 2014

NOTE: "FAIR" INDICATES FEW OR NO CLOUDS BELOW 12,000 FEET WITH NO
SIGNIFICANT WEATHER AND/OR OBSTRUCTIONS TO VISIBILITY.

  -  STATIONS PRECEEDED BY AN ASTERISK (*) ARE NOT NWS OR FAA
     STATIONS AND ARE NOT SUBJECT TO NWS AND FAA QUALITY CONTROL.

CAZ041-042-087-210100-
LA AND ORANGE COUNTY COASTAL AREAS


CITY           SKY/WX    TMP DP  RH WIND       PRES   REMARKS
L.A. DOWNTOWN  SUNNY     78  60  53 W8        29.87F
L.A. AIRPORT   MOSUNNY   74  59  59 W14       29.89F
LONG BEACH     SUNNY     78  58  49 SW9       29.87F

CITY           SKY/WX    TMP DP  RH WIND       PRES   REMARKS
AVALON           N/A     73 N/A N/A N3          N/A
FULLERTON      SUNNY     80  59  48 SW10      29.86F
*GETTY CENTER    N/A     77  59  53 S8          N/A
HAWTHORNE      SUNNY     76  61  59 W13       29.89S
*LEO CARRILLO    N/A     73  61  65 W10         N/A
*REDONDO BEACH   N/A     75  63  66 W5        29.89R
SANTA ANA      MOSUNNY   79  59  50 SW9       29.88S
STA MONICA APT SUNNY     74  61  63 SW9       29.89F
TORRANCE       MOSUNNY   79  63  57 NW16      29.89S

$$

CAZ547-548-048-210100-
LA COUNTY VALLEYS AND INLAND EMPIRE


CITY           SKY/WX    TMP DP  RH WIND       PRES   REMARKS
BURBANK        SUNNY     80  54  40 S8        29.87F
VAN NUYS       MOSUNNY   83  50  31 S8        29.87F

CITY           SKY/WX    TMP DP  RH WIND       PRES   REMARKS
CORONA AIRPORT PTCLDY    86  60  41 W5          N/A
*CHATSWORTH      N/A     85  47  26 E3        29.83F
CHINO          PTSUNNY   85  57  38 E8        29.88F
*CLAREMONT       N/A     88  53  29 S3          N/A
MARCH AFB      CLOUDY    72  61  68 CALM      29.92F
*NORTHRIDGE      N/A     84  41  21 SE5G10      N/A
ONTARIO        PTSUNNY   83  56  39 E6        29.88S THUNDER
*PASADENA        N/A     84  61  45 CALM        N/A
POMONA         SUNNY     84  55  37 W7        29.91
RIVERSIDE      PTSUNNY   72  66  81 SE7       29.89S
SAN BERNARDINO LGT RAIN  72  61  68 S6        29.91F
*SAN GABRIEL     N/A     81  55  40 CALM      29.82F
*SAN RAFAEL HI   N/A     86  61  42 E7          N/A
*SAUGUS          N/A     83  41  22 S14G31      N/A
*WHITEMAN AP   MOSUNNY   81  54  39 SE8       29.91F
*WHITTIER HILL   N/A     81  61  50 S10         N/A
*WOODLAND HILL   N/A     88  37  16 SE2         N/A

$$

CAZ054-055-210100-
LA AND SAN BERNARDINO COUNTY MOUNTAINS


CITY           SKY/WX    TMP DP  RH WIND       PRES   REMARKS
*ACTON           N/A     82  48  30 SW9G21      N/A
*BIG BEAR AIRP MOCLDY    64  39  39 S5        30.16S
*BIG PINES       N/A     61  41  48 SE2         N/A
MT WILSON NWS    N/A     70  52  52 MISG        N/A
SANDBERG       SUNNY     77  42  28 S17G26    30.04S

$$

CAZ028-029-059-060-099-210100-
ANTELOPE VALLEY AND SURROUNDING AREAS


CITY           SKY/WX    TMP DP  RH WIND       PRES   REMARKS
LANCASTER      SUNNY     85  42  22 SW21      29.90S
PALMDALE       MOSUNNY   86  47  25 W20G26    29.90F

CITY           SKY/WX    TMP DP  RH WIND       PRES   REMARKS
29 PALMS       PTSUNNY   89  45  21 SE9       29.93F
BARSTOW/DAGGET MOSUNNY   93  34  12 SW24G31   29.84S
BISHOP         SUNNY     90  25   9 S22G30    29.88S
CHINA LAKE     SUNNY     91  36  14 CALM      29.86S
EDWARDS AFB    PTSUNNY   91  36  14 NE16G23   29.86
MOJAVE         FAIR      86  37  17 SW7       29.91S
NEEDLES        SUNNY    100  45  15 S9G18     29.78F HX  96
VICTORVILLE    CLOUDY    81  30  16 S26       29.92F

$$

CAZ039-040-210100-
VENTURA AND SANTA BARBARA COUNTY COAST


CITY           SKY/WX    TMP DP  RH WIND       PRES   REMARKS
CAMARILLO      SUNNY     76  58  53 W10       29.89S
NWS OXNARD       N/A     73  58  59 W6        29.89S
OXNARD AIRPORT SUNNY     71  58  63 W16       29.90S
*POINT MUGU    MOSUNNY   76  58  53 W16       29.90F
SBA APT/GOLETA SUNNY     72  56  57 W15       29.90S
*SANTA BARBARA   N/A     76  56  50 CALM      29.97S
*VENTURA         N/A     76  58  52 SW5       29.93S

$$

CAZ044-045-210100-
VENTURA COUNTY VALLEYS


CITY           SKY/WX    TMP DP  RH WIND       PRES   REMARKS
*SIMI VALLEY     N/A     79  61  52 W5        29.83F
*OJAI            N/A     82  61  47 W5        29.82R
*FILLMORE        N/A     80  62  54 CALM      29.79S

$$

CAZ053-210100-
VENTURA COUNTY MOUNTAINS


CITY           SKY/WX    TMP DP  RH WIND       PRES   REMARKS
*LOCKWOOD VLY    N/A     73  34  23 MISG        N/A
*ROSE VALLEY     N/A     77  59  53 MISG        N/A

$$

CAZ034-035-036-210100-
CENTRAL COAST AND SANTA YNEZ VALLEY


CITY           SKY/WX    TMP DP  RH WIND       PRES   REMARKS
SAN LUIS OBISP SUNNY     74  56  53 NW12      29.90F
SANTA MARIA    SUNNY     74  56  53 NW13      29.92S

CITY           SKY/WX    TMP DP  RH WIND       PRES   REMARKS
*CAL POLY SLO    N/A     73  59  60 SW7         N/A
*CAMBRIA         N/A     68  58  70 E3        29.81F
*LOMPOC        SUNNY     72  55  56 W10       29.93S
*PISMO BEACH     N/A     68  60  75 SW6       29.92F
*SANTA YNEZ    FAIR      79  52  38 W14       29.90S

$$

CAZ037-038-051-210100-
SAN LUIS OBISPO COUNTY INTERIOR AND CUYAMA VALLEY


CITY           SKY/WX    TMP DP  RH WIND       PRES   REMARKS
*CUYAMA          N/A     83  52  33 W12       29.79S
PASO ROBLES    SUNNY     80  52  37 SW20      29.87S

$$

CAZ032-033-061-210100-
SOUTHERN DESERTS


CITY           SKY/WX    TMP DP  RH WIND       PRES   REMARKS
BLYTHE         MOSUNNY  100  54  21 SW10      29.73F HX  98
IMPERIAL       SUNNY     99  47  17 S3        29.72F HX  95
PALM SPRINGS   MOSUNNY   96  52  22 NW14      29.79F HX  93
THERMAL        PTSUNNY   97  47  18 VRB5      29.72F HX  93

$$

ELSEWHERE ACROSS THE WESTERN UNITED STATES AND MEXICO


CITY           SKY/WX    TMP DP  RH WIND       PRES   REMARKS
DENVER, CO     PTSUNNY   81  50  33 S12       29.92F
GRAND CANYON,  PTSUNNY   70  45  40 S16       30.19S
HONOLULU, HI   MOSUNNY   88  64  45 E15G22    29.95F
KAHULUI, MAUI  PTSUNNY   84  70  61 NE18G25   29.95F
LAKE TAHOE, CA SUNNY     76  41  28 S21G32    30.08R
LAS VEGAS, NV  PTSUNNY   90  49  24 S14G24    29.82S THUNDER
MAMMOTH LAKES, FAIR      77  37  24 W21G28    30.10S
MEXICO CITY, M CLOUDY    70  52  52 N14       30.25R
PHOENIX, AZ    MOSUNNY   97  54  23 N7        29.79F HX  95
PORTLAND, OR   MOSUNNY   76  49  38 VRB7      29.96S
RENO, NV       MOSUNNY   88  25  10 W18G29    29.89S
SALT LAKE CITY PTSUNNY   79  48  33 S15       29.90F
SAN DIEGO, CA  PTSUNNY   76  61  59 NW9       29.90S
SAN FRANCISCO, MOSUNNY   72  58  61 S10G20    29.89F
SAN JOSE, CA   MOSUNNY   78  58  49 NW9       29.86F
SEATTLE, WA    MOSUNNY   70  52  52 SW7       29.99S
TIJUANA, MEX   PTSUNNY   75  57  53 NW10      29.92F

$$

STATION/POSITION TIME  TEMP    WIND        PRES    VSBY  WAVE
                       AIR SEA DIR/SP/G                  HT/PER
                 (UTC) (F)     (DEG/KT/KT) (MB)    (MI)  (FT/S)
POINT ARGUELLO B NOT AVBL
WEST SANTA BARBA 0000   65 63  300/  6/  8 1012.5F         3/ 8
POINT CONCEPTION NOT AVBL
EAST SANTA BARBA 2300   65 66  290/ 12/ 14 1013.0
SANTA MONICA BAY 0000   68 73  280/ 10/ 12 1012.2F         2/14



USA.gov is the U.S. government's official web portal to all federal, state and local government web resources and services.